1517202001.16,27983,7.94,73696.8,-3.67,-4.73,-4.73,0,*55
1517202002.41,27984,7.88,73694.3,-3.65,-4.81,-4.73,0,*5D
1517202003.65,27985,7.94,73700.8,-3.65,-4.73,-4.73,0,*51
1517202004.9,27986,7.94,73714.3,-3.65,-4.81,-4.81,0,*52
1517202006.17,27987,7.88,73704.8,-3.67,-4.73,-4.73,0,*51
1517202007.45,27988,7.94,73726.0,-3.67,-4.73,-4.69,0,*55
1517202008.7,27989,7.94,73720.5,-3.65,-4.73,-4.69,0,*56
1517202009.97,27990,7.88,73728.5,-3.67,-4.73,-4.69,0,*5C
1517202011.24,27991,7.88,73726.5,-3.67,-4.69,-4.69,0,*56
1517202012.52,27992,7.88,73734.5,-3.67,-4.73,-4.69,0,*5E
1517202013.79,27993,7.88,73730.0,-3.67,-4.73,-4.81,0,*59
1517202015.06,27994,7.94,73730.3,-3.67,-4.73,-4.73,0,*53
1517202016.34,27995,7.88,73724.3,-3.67,-4.73,-4.73,0,*52
1517202017.61,27996,7.88,73724.0,-3.67,-4.73,-4.81,0,*5C
1517202018.88,27997,7.88,73724.3,-3.67,-4.81,-4.73,0,*5D
1517202020.16,27998,7.88,73722.8,-3.67,-4.73,-4.81,0,*52
1517202021.4,27999,7.94,73720.8,-3.69,-4.73,-4.77,0,*54
1517202022.6,28000,7.88,73712.0,-3.69,-4.65,-4.65,0,*56
1517202023.83,28001,7.88,73718.3,-3.67,-4.61,-4.61,0,*59
1517202025.06,28002,7.88,73730.8,-3.67,-4.61,-4.49,0,*50
1517202026.26,28003,7.88,73726.3,-3.69,-4.65,-4.61,0,*51
1517202027.46,28004,7.88,73692.3,-3.69,-4.53,-4.53,0,*52
1517202028.66,28005,7.88,73704.8,-3.69,-4.53,-4.53,0,*53
1517202029.86,28006,7.88,73710.0,-3.69,-4.61,-4.53,0,*51
1517202031.06,28007,7.94,73676.0,-3.69,-4.61,-4.61,0,*51
1517202032.26,28008,7.94,73690.0,-3.69,-4.53,-4.53,0,*5E
1517202033.49,28009,7.88,73742.5,-3.67,-4.57,-4.49,0,*5E
1517202034.72,28010,7.94,73702.5,-3.67,-4.49,-4.49,0,*59
1517202035.94,28011,7.88,73714.5,-3.67,-4.49,-4.49,0,*58
1517202037.14,28012,7.88,73748.3,-3.69,-4.53,-4.53,0,*55
1517202038.33,28013,7.88,73736.0,-3.69,-4.53,-4.45,0,*53
1517202039.54,28014,7.88,73738.5,-3.69,-4.25,-4.21,0,*57
1517202040.75,28015,7.94,73740.5,-3.69,-4.21,-4.13,0,*53
1517202041.99,28016,7.88,73724.5,-3.67,-4.21,-4.21,0,*5F
1517202043.23,28017,7.88,73750.0,-3.67,-4.21,-4.21,0,*5E
1517202044.46,28018,7.94,73760.3,-3.67,-4.33,-4.21,0,*52
1517202045.69,28019,7.88,73772.5,-3.67,-4.29,-4.33,0,*5B
1517202046.92,28020,7.88,73758.8,-3.67,-4.33,-4.33,0,*5A
1517202048.15,28021,7.88,73768.8,-3.67,-4.33,-4.33,0,*5B
1517202049.35,28022,7.88,73774.0,-3.65,-4.33,-4.33,0,*5A
1517202050.56,28023,7.88,73778.5,-3.65,-4.33,-4.33,0,*5B
1517202051.79,28024,7.88,73760.3,-3.67,-4.29,-4.29,0,*5E
1517202053.01,28025,7.88,73774.0,-3.67,-4.29,-4.29,0,*5F
1517202054.22,28026,7.88,73778.5,-3.65,-4.33,-4.33,0,*5E
1517202055.41,28027,7.94,73760.0,-3.65,-4.45,-4.33,0,*5E
1517202056.61,28028,7.94,73774.3,-3.65,-4.41,-4.33,0,*55
1517202057.8,28029,7.88,73772.0,-3.65,-4.45,-4.41,0,*55
1517202059.02,28030,7.94,73776.0,-3.67,-4.41,-4.45,0,*5F
1517202060.22,28031,7.88,73776.0,-3.65,-4.41,-4.45,0,*5C
1517202061.44,28032,7.94,73782.8,-3.67,-4.45,-4.45,0,*59
1517202062.63,28033,7.88,73766.5,-3.65,-4.45,-4.57,0,*59
1517202063.84,28034,7.88,73744.5,-3.65,-4.57,-4.57,0,*5D
1517202065.04,28035,7.88,73754.8,-3.65,-4.49,-4.49,0,*5C
1517202066.24,28036,7.94,73776.0,-3.65,-4.57,-4.57,0,*5F
1517202067.45,28037,7.94,73752.5,-3.65,-4.57,-4.61,0,*5B
1517202068.7,28038,7.88,73744.8,-3.67,-4.69,-4.61,0,*5B
1517202069.92,28039,7.88,73742.5,-3.65,-4.69,-4.61,0,*58
1517202071.16,28040,7.94,73728.8,-3.65,-4.73,-4.73,0,*5E
1517202072.41,28041,7.94,73716.3,-3.65,-4.73,-4.73,0,*5F
1517202073.66,28042,7.88,73728.0,-3.65,-4.73,-4.69,0,*57
1517202074.93,28043,7.88,73728.8,-3.67,-4.69,-4.69,0,*5F
1517202076.18,28044,7.94,73734.8,-3.65,-4.69,-4.69,0,*5A
1517202077.45,28045,7.94,73738.5,-3.67,-4.69,-4.69,0,*59
1517202078.65,28046,7.94,73736.8,-3.69,-4.65,-4.65,0,*54
1517202079.88,28047,7.88,73754.5,-3.67,-4.61,-4.61,0,*5B
1517202081.11,28048,7.88,73754.5,-3.67,-4.61,-4.61,0,*54
1517202082.36,28049,7.88,73724.0,-3.67,-4.57,-4.69,0,*58
1517202083.58,28050,7.88,73726.0,-3.67,-4.45,-4.41,0,*59
1517202084.81,28051,7.94,73732.5,-3.67,-4.21,-4.17,0,*59
1517202086.01,28052,7.88,73730.3,-3.65,-4.09,-4.09,0,*5D
1517202087.24,28053,7.88,73724.0,-3.67,-4.09,-4.09,0,*5E
1517202088.44,28054,7.88,73732.5,-3.65,-4.17,-4.17,0,*5B
1517202089.65,28055,7.88,73732.3,-3.65,-4.21,-4.21,0,*5A
1517202090.88,28056,7.88,73742.3,-3.67,-4.33,-4.29,0,*50
1517202092.07,28057,7.94,73742.5,-3.65,-4.45,-4.41,0,*5C
1517202093.27,28058,7.88,73756.5,-3.65,-4.45,-4.41,0,*53
1517202094.49,28059,7.88,73740.5,-3.67,-4.41,-4.45,0,*50
1517202095.7,28060,7.88,73730.3,-3.65,-4.17,-4.21,0,*59
1517202096.9,28061,7.88,73730.3,-3.65,-3.95,-3.95,0,*5D
1517202098.14,28062,7.88,73730.3,-3.67,-3.91,-3.91,0,*5C
1517202099.34,28063,7.88,73742.0,-3.65,-3.95,-3.95,0,*5F
1517202100.54,28064,7.88,73752.8,-3.65,-4.05,-4.09,0,*54
1517202101.74,28065,7.88,73754.0,-3.65,-4.09,-4.09,0,*59
1517202102.95,28066,7.94,73744.0,-3.65,-4.21,-4.09,0,*50
1517202104.15,28067,7.88,73728.3,-3.61,-4.17,-4.13,0,*5B
1517202105.37,28068,7.88,73742.3,-3.59,-4.13,-4.17,0,*5F
1517202106.58,28069,7.88,73740.0,-3.61,-4.25,-4.25,0,*51
1517202107.78,28070,7.88,73738.0,-3.61,-4.29,-4.29,0,*59
1517202108.98,28071,7.88,73736.5,-3.61,-4.37,-4.29,0,*57
1517202110.18,28072,7.88,73732.8,-3.61,-4.41,-4.37,0,*5A
1517202111.38,28073,7.88,73738.5,-3.61,-4.41,-4.37,0,*5B
1517202112.58,28074,7.94,73738.3,-3.61,-4.41,-4.41,0,*5D
1517202113.78,28075,7.88,73738.5,-3.61,-4.41,-4.37,0,*5D
1517202114.98,28076,7.88,73736.8,-3.61,-4.37,-4.37,0,*5F
1517202116.2,28077,7.88,73738.5,-3.59,-4.37,-4.37,0,*55
1517202117.4,28078,7.88,73742.3,-3.61,-4.41,-4.41,0,*51
1517202118.6,28079,7.88,73746.0,-3.61,-4.41,-4.41,0,*50
1517202119.8,28080,7.88,73752.8,-3.61,-4.37,-4.37,0,*56
1517202121.0,28081,7.88,73756.5,-3.61,-4.37,-4.37,0,*57
1517202122.2,28082,7.88,73758.5,-3.61,-4.41,-4.37,0,*55
1517202123.4,28083,7.88,73762.5,-3.61,-4.29,-4.29,0,*55
1517202124.6,28084,7.88,73762.8,-3.61,-4.37,-4.29,0,*5D
1517202125.83,28085,7.88,73764.5,-3.59,-4.33,-4.25,0,*5F
1517202127.03,28086,7.88,73774.5,-3.61,-4.37,-4.29,0,*5F
1517202128.25,28087,7.88,73770.8,-3.59,-4.37,-4.21,0,*5D
1517202129.46,28088,7.88,73758.3,-3.61,-4.25,-4.29,0,*52
1517202130.68,28089,7.88,73752.3,-3.59,-4.09,-3.95,0,*56
1517202131.9,28090,7.88,73750.3,-3.59,-3.87,-3.87,0,*5C
1517202133.13,28091,7.94,73748.5,-3.59,-3.95,-3.87,0,*5E
1517202134.33,28092,7.88,73748.8,-3.61,-3.95,-3.87,0,*56
1517202135.59,28093,7.88,73748.5,-3.59,-3.95,-4.01,0,*55
1517202136.87,28094,7.88,73754.3,-3.59,-4.01,-4.01,0,*58
1517202138.12,28095,7.88,73754.5,-3.57,-4.01,-4.01,0,*57
1517202139.4,28096,7.88,73762.8,-3.59,-4.01,-4.01,0,*5A
1517202140.65,28097,7.88,73768.0,-3.59,-4.09,-4.01,0,*53
1517202141.88,28098,7.88,73764.8,-3.57,-4.09,-4.01,0,*52
1517202143.1,28099,7.94,73766.0,-3.55,-4.09,-4.05,0,*55
1517202144.31,28100,7.88,73760.0,-3.55,-4.05,-3.95,0,*56
1517202145.51,28101,7.88,73766.0,-3.57,-4.09,-4.09,0,*5B
1517202146.72,28102,7.88,73760.5,-3.57,-4.09,-4.13,0,*53
1517202147.94,28103,7.88,73760.3,-3.55,-4.09,-4.05,0,*57
1517202149.15,28104,7.88,73762.3,-3.55,-4.09,-4.09,0,*5C
1517202150.35,28105,7.88,73762.3,-3.57,-4.13,-4.09,0,*54
1517202151.57,28106,7.88,73764.5,-3.55,-4.13,-4.09,0,*55
1517202152.79,28107,7.88,73764.5,-3.55,-4.09,-4.09,0,*5F
1517202153.99,28108,7.88,73768.3,-3.57,-4.13,-4.09,0,*59
1517202155.21,28109,7.88,73772.3,-3.55,-4.05,-4.05,0,*51
1517202156.43,28110,7.88,73778.0,-3.55,-4.09,-4.05,0,*55
1517202157.65,28111,7.88,73776.0,-3.55,-4.09,-4.09,0,*58
1517202158.85,28112,7.88,73780.0,-3.57,-4.13,-4.09,0,*52
1517202160.05,28113,7.88,73780.3,-3.57,-4.13,-4.09,0,*53
1517202161.25,28114,7.88,73778.8,-3.57,-4.13,-4.09,0,*54
1517202162.47,28115,7.94,73778.3,-3.55,-4.09,-4.09,0,*5C
1517202163.69,28116,7.88,73776.0,-3.55,-4.09,-4.05,0,*53
1517202164.89,28117,7.88,73772.3,-3.57,-4.13,-4.13,0,*5C
1517202166.11,28118,7.94,73774.5,-3.55,-4.05,-4.05,0,*51
1517202167.31,28119,7.88,73768.3,-3.53,-4.09,-4.09,0,*56
1517202168.53,28120,7.88,73770.8,-3.55,-4.09,-4.17,0,*55
1517202169.75,28121,7.88,73768.5,-3.55,-4.17,-4.21,0,*5E
1517202170.96,28122,7.88,73764.8,-3.57,-4.21,-4.25,0,*5E
1517202172.19,28123,7.88,73766.5,-3.55,-4.21,-4.21,0,*59
1517202173.42,28124,7.88,73764.8,-3.55,-4.17,-4.21,0,*5B
1517202174.65,28125,7.88,73770.3,-3.55,-4.29,-4.21,0,*57
1517202175.87,28126,7.88,73768.8,-3.55,-4.29,-4.21,0,*54
1517202177.1,28127,7.88,73776.0,-3.55,-4.29,-4.21,0,*55
1517202178.33,28128,7.88,73774.5,-3.55,-4.21,-4.21,0,*52
1517202179.53,28129,7.88,73778.3,-3.53,-4.29,-4.17,0,*58
1517202180.75,28130,7.88,73784.8,-3.55,-4.29,-4.17,0,*56
1517202181.97,28131,7.94,73786.8,-3.55,-4.29,-4.21,0,*52
1517202183.2,28132,7.88,73788.5,-3.55,-4.29,-4.29,0,*59
1517202184.42,28133,7.88,73802.5,-3.55,-4.29,-4.29,0,*58
1517202185.64,28134,7.88,73796.8,-3.55,-4.29,-4.33,0,*54
1517202186.87,28135,7.88,73802.8,-3.55,-4.33,-4.29,0,*55
1517202188.09,28136,7.88,73810.3,-3.55,-4.33,-4.33,0,*5D
1517202189.31,28137,7.88,73810.0,-3.55,-4.33,-4.33,0,*5C
1517202190.53,28138,7.88,73800.8,-3.55,-4.33,-4.33,0,*53
1517202191.73,28139,7.88,73798.5,-3.57,-4.41,-4.49,0,*58
1517202192.93,28140,7.88,73802.0,-3.57,-4.49,-4.49,0,*5E
1517202194.14,28141,7.88,73792.8,-3.55,-4.45,-4.49,0,*51
1517202195.36,28142,7.88,73774.0,-3.55,-4.49,-4.57,0,*51
1517202196.56,28143,7.88,73752.3,-3.57,-4.53,-4.49,0,*56
1517202197.76,28144,7.88,73758.5,-3.57,-4.41,-4.49,0,*52
1517202198.96,28145,7.88,73764.5,-3.57,-4.41,-4.41,0,*5B
1517202200.15,28146,7.88,73762.0,-3.57,-4.49,-4.49,0,*58
1517202201.35,28147,7.88,73746.0,-3.57,-4.49,-4.53,0,*52
1517202202.55,28148,7.88,73726.0,-3.57,-4.49,-4.41,0,*5E
1517202203.75,28149,7.88,73726.5,-3.57,-4.41,-4.49,0,*5F
1517202204.96,28150,7.88,73718.8,-3.59,-4.49,-4.49,0,*51
1517202206.19,28151,7.88,73732.8,-3.59,-4.53,-4.61,0,*51
1517202207.41,28152,7.88,73722.5,-3.59,-4.53,-4.49,0,*58
1517202208.61,28153,7.88,73716.0,-3.57,-4.41,-4.41,0,*5C
1517202209.8,28154,7.88,73700.5,-3.57,-4.37,-4.37,0,*5B
1517202211.01,28155,7.88,73724.8,-3.57,-4.33,-4.37,0,*5E
1517202212.21,28156,7.88,73714.0,-3.57,-4.37,-4.33,0,*5D
1517202213.41,28157,7.88,73708.0,-3.57,-4.33,-4.37,0,*5C
1517202214.62,28158,7.88,73722.0,-3.57,-4.33,-4.33,0,*57
1517202215.81,28159,7.88,73726.3,-3.57,-4.37,-4.33,0,*52
1517202217.02,28160,7.88,73712.8,-3.57,-4.21,-4.21,0,*5C
1517202218.23,28161,7.88,73714.5,-3.57,-4.25,-4.25,0,*5D
1517202219.44,28162,7.88,73728.0,-3.57,-4.25,-4.21,0,*5A
1517202220.64,28163,7.88,73726.0,-3.57,-4.21,-4.17,0,*5A
1517202221.85,28164,7.88,73722.0,-3.57,-4.21,-4.25,0,*5C
1517202223.06,28165,7.94,73716.3,-3.57,-4.21,-4.25,0,*5D
1517202224.28,28166,7.88,73726.5,-3.57,-4.21,-4.21,0,*5A
1517202225.49,28167,7.88,73732.8,-3.57,-4.21,-4.21,0,*5B
1517202226.7,28168,7.88,73728.3,-3.57,-4.21,-4.21,0,*54
1517202227.94,28169,7.88,73720.8,-3.55,-4.21,-4.21,0,*57
1517202229.14,28170,7.88,73726.5,-3.57,-4.33,-4.33,0,*5D
1517202230.35,28171,7.88,73726.5,-3.57,-4.25,-4.25,0,*5C
1517202231.55,28172,7.88,73732.0,-3.57,-4.33,-4.33,0,*5F
1517202232.75,28173,7.88,73730.0,-3.57,-4.37,-4.37,0,*5E
1517202233.95,28174,7.88,73734.5,-3.57,-4.33,-4.25,0,*5E
1517202235.15,28175,7.88,73738.0,-3.57,-4.37,-4.37,0,*58
1517202236.35,28176,7.88,73748.8,-3.57,-4.37,-4.37,0,*5B
1517202237.58,28177,7.94,73766.3,-3.55,-4.33,-4.29,0,*53
1517202238.78,28178,7.88,73770.5,-3.57,-4.33,-4.33,0,*55
1517202239.97,28179,7.88,73770.3,-3.57,-4.37,-4.33,0,*50
1517202241.19,28180,7.88,73768.0,-3.55,-4.29,-4.33,0,*5B
1517202242.42,28181,7.88,73772.0,-3.55,-4.33,-4.33,0,*51
1517202243.64,28182,7.88,73772.5,-3.55,-4.33,-4.33,0,*52
1517202244.84,28183,7.88,73794.3,-3.57,-4.33,-4.33,0,*51
1517202246.04,28184,7.88,73806.8,-3.57,-4.29,-4.29,0,*56
1517202247.27,28185,7.88,73778.3,-3.55,-4.33,-4.29,0,*5E
1517202248.5,28186,7.88,73768.5,-3.55,-4.33,-4.29,0,*5D
1517202249.69,28187,7.88,73766.5,-3.57,-4.37,-4.37,0,*55
1517202250.89,28188,7.88,73752.5,-3.57,-4.37,-4.37,0,*5A
1517202252.1,28189,7.88,73756.8,-3.57,-4.41,-4.37,0,*5A
1517202253.31,28190,7.88,73782.3,-3.55,-4.37,-4.37,0,*51
1517202254.5,28191,7.88,73790.5,-3.57,-4.45,-4.45,0,*52
1517202255.71,28192,7.88,73762.3,-3.55,-4.45,-4.49,0,*5F
1517202256.91,28193,7.88,73742.3,-3.57,-4.41,-4.49,0,*58
1517202258.11,28194,7.88,73744.0,-3.57,-4.37,-4.41,0,*56
1517202259.31,28195,7.88,73686.5,-3.57,-4.33,-4.33,0,*56
1517202260.52,28196,7.88,73698.0,-3.57,-4.33,-4.25,0,*52
1517202261.74,28197,7.88,73708.5,-3.55,-4.21,-4.17,0,*53
1517202262.97,28198,7.88,73704.0,-3.55,-4.29,-4.21,0,*51
1517202264.18,28199,7.88,73724.3,-3.57,-4.25,-4.25,0,*5A
1517202265.38,28200,7.88,73742.8,-3.57,-4.25,-4.25,0,*59
1517202266.59,28201,7.88,73728.3,-3.57,-4.25,-4.25,0,*58
1517202267.8,28202,7.88,73714.8,-3.57,-4.21,-4.13,0,*5A
1517202269.01,28203,7.88,73708.8,-3.57,-4.25,-4.21,0,*5E
1517202270.22,28204,7.88,73706.5,-3.57,-4.21,-4.25,0,*59
1517202271.42,28205,7.88,73708.8,-3.57,-4.13,-4.21,0,*5D
1517202272.64,28206,7.88,73696.3,-3.55,-4.09,-4.09,0,*5D
1517202273.86,28207,7.88,73702.5,-3.55,-4.05,-4.09,0,*50
1517202275.06,28208,7.88,73708.3,-3.57,-4.09,-4.09,0,*51
1517202276.26,28209,7.88,73704.3,-3.57,-4.09,-4.09,0,*50
1517202277.49,28210,7.88,73704.0,-3.55,-3.95,-3.95,0,*5A
1517202278.71,28211,7.88,73718.5,-3.55,-3.95,-3.95,0,*5B
1517202279.94,28212,7.88,73726.5,-3.55,-3.95,-3.95,0,*58
1517202281.15,28213,7.88,73732.8,-3.55,-4.05,-3.95,0,*57
1517202282.37,28214,7.88,73732.0,-3.55,-4.05,-3.95,0,*50
1517202283.59,28215,7.88,73754.5,-3.55,-4.09,-4.05,0,*53
1517202284.81,28216,7.88,73754.0,-3.55,-4.09,-4.05,0,*50
1517202286.03,28217,7.88,73752.3,-3.55,-4.09,-3.95,0,*5F
1517202287.25,28218,7.88,73742.0,-3.55,-4.05,-4.05,0,*52
1517202288.45,28219,7.88,73736.3,-3.53,-4.09,-4.09,0,*55
1517202289.65,28220,7.88,73758.3,-3.53,-4.09,-4.09,0,*5F
1517202290.85,28221,7.88,73736.8,-3.53,-4.05,-4.09,0,*52
1517202292.09,28222,7.88,73722.5,-3.51,-4.05,-4.01,0,*5B
1517202293.34,28223,7.88,73726.3,-3.51,-4.05,-4.01,0,*5A
1517202294.54,28224,7.88,73732.8,-3.53,-4.17,-4.05,0,*58
1517202295.74,28225,7.88,73728.0,-3.53,-4.17,-4.17,0,*5A
1517202296.96,28226,7.88,73730.0,-3.51,-4.05,-4.13,0,*5C
1517202298.16,28227,7.88,73738.3,-3.53,-4.21,-4.17,0,*5D
1517202299.39,28228,7.94,73758.5,-3.51,-4.13,-4.13,0,*55
1517202300.61,28229,7.88,73758.8,-3.51,-4.13,-4.13,0,*54
1517202301.84,28230,7.94,73756.5,-3.51,-4.13,-4.13,0,*5C
1517202303.04,28231,7.88,73750.3,-3.53,-4.17,-4.09,0,*50
1517202304.29,28232,7.88,73748.8,-3.51,-4.05,-4.01,0,*5A
1517202305.49,28233,7.88,73752.3,-3.53,-4.05,-4.05,0,*5D
1517202306.74,28234,7.88,73758.0,-3.51,-4.01,-4.05,0,*5C
1517202307.96,28235,7.88,73760.0,-3.51,-4.05,-4.05,0,*59
1517202309.16,28236,7.88,73764.0,-3.53,-4.09,-4.09,0,*58
1517202310.39,28237,7.88,73758.3,-3.53,-4.05,-4.01,0,*5D
1517202311.61,28238,7.88,73770.3,-3.51,-4.05,-4.05,0,*54
1517202312.86,28239,7.88,73768.5,-3.51,-4.05,-4.01,0,*51
1517202314.06,28240,7.88,73766.5,-3.53,-4.09,-4.05,0,*55
1517202315.26,28241,7.88,73772.3,-3.53,-4.05,-4.05,0,*58
1517202316.51,28242,7.88,73770.0,-3.51,-4.05,-4.01,0,*5D
1517202317.73,28243,7.88,73768.0,-3.51,-4.05,-4.05,0,*58
1517202318.95,28244,7.88,73762.0,-3.51,-4.05,-4.05,0,*5F
1517202320.18,28245,7.88,73752.5,-3.51,-4.05,-4.13,0,*59
1517202321.4,28246,7.88,73754.3,-3.51,-4.13,-4.05,0,*5A
1517202322.6,28247,7.88,73758.0,-3.49,-4.13,-4.13,0,*55
1517202323.79,28248,7.88,73768.8,-3.49,-4.13,-4.17,0,*5E
1517202324.99,28249,7.88,73782.0,-3.49,-4.13,-4.13,0,*5B
1517202326.18,28250,7.88,73786.3,-3.49,-4.17,-4.17,0,*53
1517202327.38,28251,7.88,73784.5,-3.49,-4.13,-4.17,0,*56
1517202328.58,28252,7.88,73786.8,-3.49,-4.17,-4.13,0,*55
1517202329.79,28253,7.88,73794.0,-3.51,-4.17,-4.17,0,*59
1517202331.01,28254,7.88,73798.8,-3.51,-4.17,-4.17,0,*5E
1517202332.22,28255,7.88,73804.8,-3.49,-4.21,-4.09,0,*5C
1517202333.44,28256,7.88,73798.3,-3.51,-4.25,-4.17,0,*5D
1517202334.67,28257,7.88,73792.0,-3.51,-4.29,-4.25,0,*51
1517202335.89,28258,7.88,73798.8,-3.51,-4.25,-4.25,0,*52
1517202337.12,28259,7.88,73796.5,-3.51,-4.25,-4.25,0,*53
1517202338.35,28260,7.88,73790.5,-3.51,-4.25,-4.25,0,*59
1517202339.55,28261,7.88,73788.5,-3.49,-4.29,-4.25,0,*5D
1517202340.81,28262,7.88,73780.5,-3.49,-4.01,-4.01,0,*52
1517202342.03,28263,7.88,73774.8,-3.47,-3.75,-3.83,0,*54
1517202343.24,28264,7.88,73764.5,-3.49,-3.79,-3.79,0,*54
1517202344.44,28265,7.88,73764.5,-3.49,-3.79,-3.79,0,*55
1517202345.65,28266,7.88,73768.0,-3.49,-3.79,-3.79,0,*56
1517202346.85,28267,7.88,73778.0,-3.49,-3.79,-3.87,0,*56
1517202348.06,28268,7.88,73778.8,-3.49,-3.91,-3.91,0,*58
1517202349.27,28269,7.88,73776.3,-3.49,-3.91,-3.87,0,*5E
1517202350.49,28270,7.88,73776.3,-3.45,-3.83,-3.71,0,*50
1517202351.71,28271,7.88,73782.8,-3.47,-3.75,-3.75,0,*5E
1517202352.95,28272,7.88,73764.3,-3.47,-3.75,-3.71,0,*59
1517202354.18,28273,7.88,73756.8,-3.47,-3.75,-3.75,0,*5C
1517202355.41,28274,7.88,73754.3,-3.47,-3.75,-3.75,0,*5B
1517202356.62,28275,7.88,73754.8,-3.47,-3.87,-3.83,0,*5E
1517202357.82,28276,7.88,73758.8,-3.45,-3.83,-3.87,0,*5F
1517202359.02,28277,7.88,73762.5,-3.45,-3.87,-3.87,0,*5A
1517202360.26,28278,7.88,73762.5,-3.47,-3.95,-4.01,0,*5D
1517202361.54,28279,7.88,73768.8,-3.47,-4.01,-4.01,0,*56
1517202362.75,28280,7.88,73776.3,-3.45,-4.09,-4.01,0,*5A
1517202363.95,28281,7.88,73792.0,-3.45,-4.13,-4.13,0,*53
1517202365.17,28282,7.88,73806.3,-3.47,-4.09,-4.13,0,*59
1517202366.36,28283,7.88,73810.8,-3.45,-4.13,-4.09,0,*5A
1517202367.56,28284,7.88,73812.0,-3.45,-4.25,-4.13,0,*53
1517202368.78,28285,7.88,73804.8,-3.47,-4.21,-4.13,0,*54
1517202370.01,28286,7.88,73788.5,-3.47,-4.21,-4.25,0,*52
1517202371.24,28287,7.88,73774.8,-3.47,-4.25,-4.21,0,*53
1517202372.44,28288,7.88,73774.5,-3.49,-4.25,-4.25,0,*56
1517202373.65,28289,7.88,73734.0,-3.49,-4.25,-4.21,0,*53
1517202374.87,28290,7.88,73706.5,-3.47,-4.25,-4.25,0,*51
1517202376.1,28291,7.88,73724.5,-3.47,-4.21,-4.25,0,*54
1517202377.32,28292,7.88,73730.8,-3.47,-4.25,-4.29,0,*5F
1517202378.54,28293,7.88,73714.0,-3.47,-4.29,-4.29,0,*52
1517202379.75,28294,7.88,73726.0,-3.47,-4.37,-4.33,0,*51
1517202380.97,28295,7.88,73726.8,-3.47,-4.29,-4.37,0,*5B
1517202382.19,28296,7.88,73728.5,-3.47,-4.37,-4.37,0,*57
1517202383.38,28297,7.88,73754.0,-3.49,-4.41,-4.41,0,*58
1517202384.59,28298,7.88,73750.8,-3.47,-4.49,-4.49,0,*59
1517202385.78,28299,7.88,73740.5,-3.49,-4.53,-4.45,0,*51
1517202386.98,28300,7.88,73716.0,-3.45,-4.41,-4.41,0,*5B
1517202388.17,28301,7.88,73740.8,-3.49,-4.53,-4.53,0,*56
1517202389.36,28302,7.88,73752.3,-3.49,-4.45,-4.45,0,*55
1517202390.58,28303,7.88,73764.3,-3.47,-4.41,-4.37,0,*5B
1517202391.77,28304,7.88,73752.5,-3.49,-4.45,-4.41,0,*57
1517202392.97,28305,7.88,73750.5,-3.49,-4.33,-4.33,0,*52
1517202394.17,28306,7.88,73770.8,-3.49,-4.33,-4.33,0,*51
1517202395.37,28307,7.88,73790.8,-3.49,-4.33,-4.33,0,*50
1517202396.59,28308,7.88,73784.0,-3.47,-4.29,-4.29,0,*51
1517202397.79,28309,7.88,73780.8,-3.49,-4.33,-4.33,0,*5E
1517202398.99,28310,7.88,73786.8,-3.49,-4.33,-4.33,0,*56
1517202400.19,28311,7.88,73796.8,-3.49,-4.33,-4.29,0,*5C
1517202401.39,28312,7.88,73794.0,-3.49,-4.33,-4.29,0,*5F
1517202402.59,28313,7.88,73798.8,-3.49,-4.33,-4.29,0,*5E
1517202403.8,28314,7.88,73802.5,-3.49,-4.33,-4.25,0,*55
1517202405.0,28315,7.88,73808.0,-3.49,-4.29,-4.29,0,*53
1517202406.2,28316,7.88,73804.5,-3.49,-4.29,-4.29,0,*50
1517202407.4,28317,7.88,73796.3,-3.49,-4.29,-4.29,0,*51
1517202408.6,28318,7.88,73794.5,-3.49,-4.29,-4.29,0,*5E
1517202409.8,28319,7.88,73788.3,-3.49,-4.41,-4.29,0,*51
1517202411.0,28320,7.88,73780.5,-3.49,-4.33,-4.33,0,*55
1517202412.2,28321,7.88,73764.8,-3.49,-4.33,-4.29,0,*5F
1517202413.4,28322,7.88,73756.5,-3.53,-4.29,-4.17,0,*51
1517202414.59,28323,7.88,73754.3,-3.49,-4.17,-4.13,0,*52
1517202415.79,28324,7.88,73748.0,-3.49,-4.13,-4.13,0,*51
1517202417.05,28325,7.88,73752.3,-3.49,-4.01,-4.01,0,*50
1517202418.25,28326,7.88,73748.8,-3.49,-3.91,-3.91,0,*53
1517202419.45,28327,7.88,73750.0,-3.49,-4.05,-3.91,0,*58
1517202420.67,28328,7.88,73752.5,-3.47,-3.95,-3.95,0,*53
1517202421.9,28329,7.88,73752.5,-3.49,-4.05,-4.01,0,*58
1517202423.1,28330,7.88,73750.5,-3.49,-3.95,-3.95,0,*54
1517202424.32,28331,7.88,73756.0,-3.47,-3.83,-3.83,0,*5B
1517202425.54,28332,7.88,73760.8,-3.47,-3.87,-3.87,0,*58
1517202426.77,28333,7.88,73762.5,-3.49,-3.91,-4.01,0,*59
1517202427.99,28334,7.88,73762.5,-3.47,-3.95,-3.95,0,*5E
1517202429.24,28335,7.88,73764.3,-3.49,-4.01,-4.01,0,*51
1517202430.47,28336,7.88,73766.5,-3.47,-3.95,-3.95,0,*5C
1517202431.74,28337,7.88,73778.0,-3.47,-4.01,-4.01,0,*5D
1517202432.98,28338,7.88,73782.5,-3.47,-3.83,-3.71,0,*5F
1517202434.21,28339,7.88,73784.0,-3.45,-3.71,-3.63,0,*52
1517202435.42,28340,7.88,73788.0,-3.45,-3.83,-3.75,0,*56
1517202436.62,28341,7.88,73786.8,-3.45,-3.79,-3.83,0,*5B
1517202437.84,28342,7.88,73786.0,-3.47,-3.95,-3.87,0,*5C
1517202439.03,28343,7.88,73788.8,-3.45,-3.95,-3.87,0,*5F
1517202440.28,28344,7.88,73788.3,-3.47,-4.01,-3.87,0,*50
1517202441.48,28345,7.88,73790.3,-3.45,-3.95,-3.87,0,*59
1517202442.67,28346,7.88,73784.0,-3.45,-3.87,-3.83,0,*5D
1517202443.86,28347,7.88,73786.3,-3.45,-3.87,-3.83,0,*5C
1517202445.06,28348,7.88,73776.3,-3.45,-3.87,-3.87,0,*57
1517202446.28,28349,7.88,73774.5,-3.43,-3.83,-3.83,0,*50
1517202447.49,28350,7.88,73774.0,-3.39,-3.79,-3.79,0,*55
1517202448.72,28351,7.88,73768.5,-3.43,-3.83,-3.79,0,*5C
1517202449.91,28352,7.88,73768.3,-3.45,-3.87,-3.83,0,*58
1517202451.14,28353,7.88,73764.0,-3.43,-3.91,-3.83,0,*58
1517202452.33,28354,7.88,73758.8,-3.45,-3.95,-3.95,0,*5A
1517202453.55,28355,7.88,73760.0,-3.43,-4.05,-3.95,0,*53
1517202454.77,28356,7.88,73750.5,-3.43,-4.05,-4.09,0,*52
1517202455.99,28357,7.88,73748.8,-3.43,-4.05,-4.05,0,*5F
1517202457.21,28358,7.88,73744.8,-3.43,-4.05,-4.05,0,*50
1517202458.43,28359,7.88,73738.0,-3.43,-4.05,-4.05,0,*51
1517202459.65,28360,7.88,73736.5,-3.43,-4.09,-4.05,0,*57
1517202460.87,28361,7.88,73734.8,-3.43,-4.09,-4.09,0,*5A
1517202462.07,28362,7.88,73734.3,-3.45,-4.21,-4.13,0,*5E
1517202463.27,28363,7.88,73734.3,-3.39,-4.05,-4.05,0,*55
1517202464.46,28364,7.88,73740.5,-3.45,-4.13,-4.09,0,*52
1517202465.68,28365,7.88,73734.3,-3.43,-4.09,-4.09,0,*5E
1517202466.87,28366,7.88,73732.0,-3.45,-4.13,-4.09,0,*50
1517202468.09,28367,7.88,73738.3,-3.43,-4.05,-4.05,0,*5C
1517202469.29,28368,7.88,73742.3,-3.45,-4.21,-4.13,0,*54
1517202470.51,28369,7.88,73742.5,-3.43,-4.17,-4.09,0,*5D
1517202471.72,28370,7.88,73752.3,-3.45,-4.21,-4.21,0,*5C
1517202472.92,28371,7.88,73756.8,-3.45,-4.25,-4.25,0,*5D
1517202474.15,28372,7.88,73760.3,-3.43,-4.21,-4.21,0,*58
1517202475.38,28373,7.88,73766.8,-3.43,-4.21,-4.21,0,*59
1517202476.58,28374,7.88,73772.3,-3.45,-4.21,-4.17,0,*5D
1517202477.78,28375,7.88,73778.3,-3.45,-4.25,-4.25,0,*59
1517202478.98,28376,7.88,73782.0,-3.45,-4.25,-4.25,0,*5A
1517202480.2,28377,7.88,73784.0,-3.43,-4.17,-4.21,0,*58
1517202481.43,28378,7.88,73786.3,-3.43,-4.17,-4.21,0,*57
1517202482.63,28379,7.88,73790.3,-3.45,-4.21,-4.21,0,*55
1517202483.84,28380,7.88,73792.5,-3.45,-4.21,-4.21,0,*53
1517202485.04,28381,7.88,73804.5,-3.45,-4.21,-4.13,0,*53
1517202486.24,28382,7.88,73806.8,-3.45,-4.13,-4.21,0,*50
1517202487.44,28383,7.88,73812.8,-3.45,-4.13,-4.21,0,*51
1517202488.64,28384,7.88,73816.5,-3.45,-4.25,-4.21,0,*53
1517202489.85,28385,7.88,73818.8,-3.45,-4.21,-4.21,0,*56
1517202491.05,28386,7.88,73818.8,-3.45,-4.25,-4.25,0,*55
1517202492.25,28387,7.88,73824.8,-3.45,-4.25,-4.25,0,*54
1517202493.45,28388,7.88,73826.5,-3.45,-4.25,-4.25,0,*5B
1517202494.65,28389,7.88,73828.5,-3.45,-4.29,-4.25,0,*56
1517202495.84,28390,7.88,73826.8,-3.45,-4.29,-4.25,0,*5E
1517202497.04,28391,7.88,73828.3,-3.45,-4.29,-4.25,0,*5F
1517202498.27,28392,7.88,73830.8,-3.43,-4.25,-4.21,0,*52
1517202499.47,28393,7.88,73828.8,-3.45,-4.29,-4.25,0,*5D
1517202500.66,28394,7.88,73832.8,-3.45,-4.29,-4.25,0,*5A
1517202501.89,28395,7.88,73840.5,-3.43,-4.25,-4.25,0,*51
1517202503.11,28396,7.88,73842.0,-3.47,-4.29,-4.29,0,*56
1517202504.33,28397,7.88,73840.8,-3.47,-4.29,-4.29,0,*57
1517202505.52,28398,7.88,73846.5,-3.45,-4.29,-4.29,0,*5A
1517202506.72,28399,7.88,73848.8,-3.45,-4.29,-4.29,0,*5B
1517202507.92,28400,7.88,73848.5,-3.45,-4.29,-4.29,0,*5C
1517202509.13,28401,7.88,73840.8,-3.47,-4.37,-4.29,0,*50
1517202510.35,28402,7.88,73836.5,-3.47,-4.29,-4.29,0,*5C
1517202511.57,28403,7.88,73836.0,-3.47,-4.29,-4.37,0,*52